QPF
0.00 0.00 0.00 0.00 0.00 0.00 0.00 0.00 0.00 0.00 0.00 0.00 0.00 0.00 0.00 0.00 0.00 0.00 0.00 0.00 0.00 0.01 0.00 0.00 0.01 0.05 0.08 0.09 0.08 0.07 0.07 0.07 0.06 0.05 0.06 0.06 0.06 0.07 0.11 0.10 0.08 0.08 0.05 0.04
0.00 0.00 0.00 0.00 0.00 0.00 0.00 0.00 0.00 0.00 0.00 0.00 0.00 0.00 0.00 0.00 0.00 0.00 0.00 0.00 0.00 0.00 0.00 0.01 0.02 0.03 0.04 0.06 0.09 0.10 0.13 0.13 0.11 0.08 0.07 0.07 0.08 0.10 0.12 0.11 0.09 0.08 0.06 0.05
0.00 0.00 0.00 0.00 0.00 0.00 0.00 0.00 0.00 0.00 0.00 0.00 0.00 0.00 0.00 0.00 0.00 0.00 0.00 0.00 0.00 0.00 0.01 0.01 0.02 0.03 0.03 0.06 0.12 0.09 0.11 0.14 0.14 0.12 0.10 0.08 0.09 0.09 0.09 0.09 0.08 0.08 0.08 0.05
0.00 0.00 0.00 0.00 0.00 0.00 0.00 0.00 0.00 0.00 0.00 0.00 0.00 0.00 0.00 0.00 0.00 0.00 0.00 0.00 0.00 0.00 0.01 0.02 0.03 0.03 0.03 0.05 0.10 0.07 0.07 0.08 0.12 0.12 0.08 0.10 0.12 0.10 0.08 0.08 0.08 0.10 0.10 0.07
0.00 0.00 0.00 0.00 0.00 0.00 0.00 0.00 0.00 0.00 0.00 0.00 0.00 0.00 0.00 0.00 0.00 0.00 0.00 0.00 0.00 0.00 0.01 0.01 0.01 0.02 0.03 0.03 0.05 0.05 0.05 0.06 0.08 0.07 0.06 0.09 0.09 0.10 0.09 0.08 0.09 0.10 0.10 0.08
0.00 0.00 0.00 0.00 0.00 0.00 0.00 0.00 0.00 0.00 0.00 0.00 0.00 0.00 0.00 0.00 0.00 0.00 0.00 0.00 0.00 0.00 0.00 0.01 0.01 0.01 0.02 0.02 0.02 0.03 0.04 0.05 0.05 0.04 0.05 0.07 0.10 0.10 0.10 0.09 0.10 0.11 0.10 0.10
0.00 0.00 0.00 0.00 0.00 0.00 0.00 0.00 0.00 0.00 0.00 0.00 0.00 0.00 0.00 0.00 0.00 0.00 0.00 0.00 0.00 0.00 0.00 0.02 0.02 0.01 0.02 0.03 0.03 0.03 0.04 0.05 0.06 0.06 0.06 0.06 0.08 0.10 0.10 0.08 0.09 0.11 0.11 0.11
0.00 0.00 0.00 0.00 0.00 0.00 0.00 0.00 0.00 0.00 0.00 0.00 0.00 0.00 0.00 0.00 0.00 0.00 0.00 0.00 0.00 0.00 0.00 0.03 0.04 0.03 0.03 0.04 0.05 0.07 0.07 0.06 0.04 0.03 0.04 0.06 0.07 0.07 0.08 0.08 0.07 0.09 0.09 0.08
0.00 0.00 0.00 0.00 0.00 0.00 0.00 0.00 0.00 0.00 0.00 0.00 0.00 0.00 0.00 0.00 0.00 0.00 0.00 0.00 0.00 0.00 0.00 0.02 0.04 0.04 0.04 0.04 0.07 0.08 0.07 0.06 0.05 0.04 0.04 0.05 0.06 0.07 0.08 0.08 0.08 0.08 0.09 0.09
0.00 0.00 0.00 0.00 0.00 0.00 0.00 0.00 0.00 0.00 0.00 0.00 0.00 0.00 0.00 0.00 0.00 0.00 0.00 0.00 0.00 0.00 0.00 0.01 0.02 0.03 0.03 0.03 0.04 0.05 0.04 0.04 0.04 0.05 0.05 0.04 0.04 0.06 0.09 0.12 0.10 0.09 0.08 0.07
0.00 0.00 0.00 0.00 0.00 0.00 0.00 0.00 0.00 0.00 0.00 0.00 0.00 0.00 0.00 0.00 0.00 0.00 0.00 0.00 0.00 0.00 0.00 0.00 0.01 0.01 0.02 0.02 0.02 0.02 0.03 0.04 0.03 0.04 0.04 0.03 0.03 0.04 0.05 0.07 0.08 0.08 0.07 0.06
0.00 0.00 0.00 0.00 0.00 0.00 0.00 0.00 0.00 0.00 0.00 0.00 0.00 0.00 0.00 0.00 0.00 0.00 0.00 0.00 0.00 0.00 0.00 0.00 0.00 0.01 0.01 0.01 0.01 0.01 0.02 0.02 0.02 0.02 0.02 0.02 0.03 0.03 0.03 0.04 0.04 0.04 0.05 0.06
0.00 0.00 0.00 0.00 0.00 0.00 0.00 0.00 0.00 0.00 0.00 0.00 0.00 0.00 0.00 0.00 0.00 0.00 0.00 0.00 0.00 0.00 0.00 0.00 0.00 0.00 0.01 0.01 0.01 0.01 0.01 0.01 0.01 0.01 0.01 0.02 0.03 0.02 0.02 0.02 0.03 0.04 0.05 0.07
0.00 0.00 0.00 0.00 0.00 0.00 0.00 0.00 0.00 0.00 0.00 0.00 0.00 0.00 0.00 0.00 0.00 0.00 0.00 0.00 0.00 0.00 0.00 0.00 0.00 0.01 0.01 0.01 0.01 0.00 0.00 0.01 0.00 0.00 0.01 0.03 0.04 0.04 0.03 0.02 0.04 0.06 0.07 0.08
0.00 0.00 0.00 0.00 0.00 0.00 0.00 0.00 0.00 0.00 0.00 0.00 0.00 0.00 0.00 0.00 0.00 0.00 0.00 0.00 0.00 0.00 0.00 0.00 0.01 0.02 0.02 0.02 0.01 0.00 0.00 0.01 0.00 0.01 0.05 0.08 0.08 0.05 0.03 0.03 0.05 0.06 0.06 0.07
0.00 0.00 0.00 0.00 0.00 0.00 0.00 0.00 0.00 0.00 0.00 0.00 0.00 0.00 0.00 0.00 0.00 0.00 0.00 0.00 0.00 0.00 0.00 0.00 0.01 0.04 0.04 0.02 0.01 0.00 0.00 0.00 0.00 0.01 0.02 0.07 0.07 0.05 0.02 0.02 0.02 0.03 0.04 0.05
0.00 0.00 0.00 0.00 0.00 0.00 0.00 0.00 0.00 0.00 0.00 0.00 0.00 0.00 0.00 0.00 0.00 0.00 0.00 0.00 0.00 0.00 0.00 0.00 0.00 0.02 0.04 0.03 0.02 0.01 0.00 0.00 0.01 0.01 0.00 0.01 0.03 0.03 0.02 0.01 0.01 0.02 0.03 0.03
0.00 0.00 0.00 0.00 0.00 0.00 0.00 0.00 0.00 0.00 0.00 0.00 0.00 0.00 0.00 0.00 0.00 0.00 0.00 0.00 0.00 0.00 0.00 0.00 0.00 0.00 0.02 0.02 0.01 0.01 0.00 0.00 0.00 0.01 0.01 0.00 0.01 0.01 0.01 0.01 0.01 0.02 0.02 0.02
0.00 0.00 0.00 0.00 0.00 0.00 0.00 0.00 0.00 0.00 0.00 0.00 0.00 0.00 0.00 0.00 0.00 0.00 0.00 0.00 0.00 0.00 0.00 0.00 0.00 0.00 0.00 0.01 0.01 0.00 0.00 0.00 0.00 0.01 0.01 0.00 0.01 0.01 0.01 0.01 0.01 0.02 0.02 0.02
0.00 0.00 0.00 0.00 0.00 0.00 0.00 0.00 0.00 0.00 0.00 0.00 0.00 0.00 0.00 0.00 0.00 0.00 0.00 0.00 0.00 0.00 0.00 0.00 0.01 0.01 0.01 0.01 0.01 0.00 0.00 0.00 0.00 0.01 0.01 0.01 0.01 0.01 0.00 0.00 0.01 0.01 0.01 0.01
0.00 0.00 0.00 0.00 0.00 0.00 0.00 0.00 0.00 0.00 0.00 0.00 0.00 0.00 0.00 0.00 0.00 0.00 0.00 0.01 0.01 0.01 0.01 0.01 0.01 0.01 0.00 0.00 0.00 0.01 0.00 0.00 0.00 0.01 0.01 0.01 0.01 0.00 0.00 0.00 0.01 0.01 0.01 0.01
0.00 0.00 0.00 0.00 0.00 0.00 0.00 0.00 0.00 0.00 0.00 0.00 0.00 0.00 0.00 0.00 0.00 0.00 0.01 0.01 0.01 0.01 0.01 0.01 0.01 0.01 0.01 0.02 0.01 0.01 0.01 0.01 0.01 0.00 0.01 0.01 0.01 0.00 0.00 0.01 0.01 0.01 0.01 0.02
0.00 0.00 0.00 0.00 0.00 0.00 0.00 0.00 0.00 0.00 0.00 0.00 0.00 0.00 0.00 0.00 0.01 0.01 0.01 0.02 0.03 0.03 0.02 0.02 0.01 0.01 0.02 0.02 0.01 0.01 0.01 0.01 0.01 0.01 0.01 0.01 0.01 0.01 0.01 0.01 0.03 0.03 0.02 0.01
0.00 0.00 0.00 0.00 0.00 0.00 0.00 0.00 0.00 0.00 0.00 0.01 0.01 0.01 0.00 0.00 0.00 0.01 0.01 0.03 0.03 0.04 0.03 0.03 0.02 0.02 0.01 0.01 0.01 0.01 0.01 0.01 0.00 0.00 0.01 0.01 0.01 0.01 0.01 0.02 0.03 0.02 0.02 0.02
0.00 0.00 0.00 0.01 0.01 0.00 0.00 0.00 0.01 0.01 0.01 0.01 0.01 0.02 0.02 0.02 0.01 0.01 0.01 0.02 0.03 0.04 0.04 0.04 0.03 0.02 0.02 0.01 0.01 0.01 0.02 0.01 0.01 0.01 0.01 0.01 0.01 0.01 0.02 0.03 0.02 0.02 0.01 0.02
0.00 0.00 0.01 0.01 0.01 0.01 0.00 0.01 0.01 0.01 0.02 0.02 0.02 0.02 0.03 0.03 0.02 0.01 0.01 0.02 0.02 0.04 0.05 0.06 0.05 0.04 0.03 0.02 0.02 0.03 0.03 0.03 0.02 0.02 0.01 0.01 0.02 0.02 0.02 0.02 0.02 0.02 0.02 0.02
MSLP
1012.58 1013.01 1013.31 1013.48 1013.52 1013.46 1013.31 1013.09 1012.80 1012.44 1012.02 1011.54 1011.04 1010.55 1010.12 1009.81 1009.67 1009.72 1009.96 1010.37 1010.92 1011.55 1012.20 1012.82 1013.39 1013.90 1014.33 1014.71 1015.06 1015.39 1015.71 1016.01 1016.29 1016.55 1016.76 1016.94 1017.10 1017.24 1017.39 1017.55 1017.73 1017.94 1018.16 1018.39
1013.02 1013.36 1013.57 1013.66 1013.65 1013.58 1013.45 1013.29 1013.08 1012.80 1012.45 1012.01 1011.50 1010.97 1010.45 1010.01 1009.71 1009.61 1009.71 1010.01 1010.49 1011.07 1011.71 1012.34 1012.93 1013.45 1013.89 1014.27 1014.61 1014.93 1015.24 1015.56 1015.88 1016.18 1016.47 1016.72 1016.95 1017.14 1017.32 1017.49 1017.66 1017.84 1018.03 1018.22
1013.27 1013.51 1013.62 1013.64 1013.60 1013.54 1013.47 1013.40 1013.30 1013.13 1012.87 1012.49 1011.99 1011.40 1010.78 1010.20 1009.74 1009.47 1009.41 1009.59 1009.96 1010.49 1011.11 1011.74 1012.35 1012.88 1013.34 1013.73 1014.08 1014.40 1014.74 1015.08 1015.45 1015.82 1016.17 1016.50 1016.79 1017.04 1017.24 1017.41 1017.56 1017.71 1017.84 1017.99
1013.28 1013.42 1013.45 1013.41 1013.37 1013.35 1013.37 1013.43 1013.47 1013.44 1013.29 1012.98 1012.49 1011.85 1011.13 1010.41 1009.78 1009.32 1009.10 1009.13 1009.40 1009.86 1010.45 1011.08 1011.70 1012.26 1012.75 1013.16 1013.53 1013.89 1014.25 1014.63 1015.05 1015.48 1015.90 1016.30 1016.64 1016.92 1017.14 1017.30 1017.42 1017.52 1017.60 1017.69
1013.08 1013.12 1013.08 1013.02 1013.01 1013.07 1013.21 1013.42 1013.62 1013.75 1013.72 1013.48 1013.01 1012.34 1011.52 1010.65 1009.85 1009.22 1008.82 1008.71 1008.87 1009.26 1009.81 1010.44 1011.07 1011.67 1012.19 1012.64 1013.04 1013.42 1013.82 1014.25 1014.71 1015.18 1015.66 1016.10 1016.48 1016.79 1017.00 1017.15 1017.23 1017.27 1017.31 1017.34
1012.70 1012.67 1012.60 1012.55 1012.59 1012.75 1013.03 1013.40 1013.78 1014.06 1014.15 1013.99 1013.55 1012.84 1011.93 1010.94 1009.99 1009.19 1008.65 1008.40 1008.45 1008.77 1009.28 1009.90 1010.56 1011.17 1011.73 1012.22 1012.65 1013.06 1013.48 1013.94 1014.43 1014.94 1015.44 1015.91 1016.31 1016.62 1016.82 1016.94 1016.98 1016.98 1016.96 1016.95
1012.25 1012.17 1012.09 1012.07 1012.18 1012.46 1012.88 1013.41 1013.93 1014.35 1014.56 1014.47 1014.05 1013.32 1012.35 1011.26 1010.19 1009.27 1008.59 1008.24 1008.20 1008.46 1008.94 1009.55 1010.21 1010.85 1011.43 1011.94 1012.39 1012.82 1013.26 1013.72 1014.21 1014.73 1015.24 1015.71 1016.11 1016.41 1016.60 1016.69 1016.70 1016.65 1016.59 1016.54
1011.81 1011.72 1011.65 1011.68 1011.87 1012.24 1012.78 1013.43 1014.07 1014.60 1014.88 1014.85 1014.45 1013.71 1012.71 1011.57 1010.42 1009.42 1008.67 1008.24 1008.14 1008.36 1008.81 1009.42 1010.08 1010.73 1011.32 1011.84 1012.29 1012.72 1013.14 1013.58 1014.06 1014.56 1015.06 1015.51 1015.90 1016.18 1016.35 1016.42 1016.40 1016.32 1016.23 1016.14
1011.49 1011.40 1011.35 1011.43 1011.67 1012.11 1012.73 1013.44 1014.15 1014.72 1015.05 1015.04 1014.67 1013.94 1012.93 1011.78 1010.62 1009.59 1008.82 1008.37 1008.26 1008.46 1008.90 1009.50 1010.16 1010.81 1011.39 1011.90 1012.34 1012.74 1013.13 1013.54 1013.98 1014.44 1014.91 1015.34 1015.70 1015.97 1016.12 1016.17 1016.13 1016.04 1015.92 1015.80
1011.34 1011.26 1011.24 1011.33 1011.60 1012.06 1012.68 1013.40 1014.10 1014.66 1014.98 1014.98 1014.61 1013.90 1012.93 1011.82 1010.70 1009.72 1008.98 1008.56 1008.47 1008.69 1009.14 1009.74 1010.40 1011.04 1011.61 1012.09 1012.50 1012.86 1013.21 1013.58 1013.97 1014.39 1014.81 1015.21 1015.55 1015.80 1015.95 1016.00 1015.96 1015.85 1015.71 1015.56
1011.40 1011.32 1011.30 1011.39 1011.63 1012.05 1012.61 1013.25 1013.87 1014.36 1014.62 1014.59 1014.22 1013.55 1012.64 1011.61 1010.59 1009.71 1009.07 1008.73 1008.70 1008.96 1009.44 1010.06 1010.72 1011.34 1011.90 1012.36 1012.74 1013.06 1013.37 1013.69 1014.03 1014.41 1014.80 1015.17 1015.49 1015.74 1015.89 1015.94 1015.90 1015.79 1015.64 1015.45
1011.62 1011.55 1011.50 1011.55 1011.72 1012.03 1012.47 1012.96 1013.44 1013.81 1013.97 1013.88 1013.50 1012.87 1012.05 1011.13 1010.25 1009.51 1009.01 1008.78 1008.85 1009.18 1009.71 1010.34 1011.01 1011.64 1012.18 1012.63 1012.99 1013.29 1013.57 1013.85 1014.17 1014.51 1014.87 1015.23 1015.55 1015.79 1015.96 1016.02 1015.99 1015.88 1015.70 1015.49
1011.97 1011.87 1011.78 1011.76 1011.82 1011.99 1012.25 1012.56 1012.86 1013.06 1013.09 1012.92 1012.53 1011.94 1011.20 1010.42 1009.70 1009.12 1008.77 1008.68 1008.85 1009.26 1009.83 1010.50 1011.19 1011.83 1012.38 1012.83 1013.19 1013.49 1013.76 1014.04 1014.34 1014.68 1015.03 1015.38 1015.69 1015.95 1016.12 1016.20 1016.18 1016.07 1015.88 1015.63
1012.37 1012.23 1012.09 1011.97 1011.90 1011.91 1011.98 1012.09 1012.18 1012.20 1012.10 1011.84 1011.42 1010.87 1010.22 1009.57 1009.00 1008.58 1008.37 1008.41 1008.68 1009.16 1009.78 1010.48 1011.19 1011.85 1012.43 1012.91 1013.30 1013.63 1013.93 1014.23 1014.54 1014.88 1015.23 1015.59 1015.91 1016.17 1016.36 1016.45 1016.44 1016.33 1016.13 1015.85
1012.74 1012.57 1012.36 1012.15 1011.96 1011.81 1011.70 1011.61 1011.51 1011.36 1011.12 1010.78 1010.34 1009.81 1009.24 1008.70 1008.26 1007.97 1007.87 1008.01 1008.35 1008.88 1009.54 1010.27 1011.01 1011.70 1012.32 1012.85 1013.30 1013.69 1014.04 1014.38 1014.73 1015.09 1015.46 1015.82 1016.14 1016.41 1016.60 1016.70 1016.69 1016.58 1016.37 1016.08
1013.04 1012.83 1012.58 1012.29 1012.00 1011.73 1011.47 1011.21 1010.95 1010.66 1010.32 1009.91 1009.44 1008.93 1008.41 1007.95 1007.59 1007.38 1007.37 1007.55 1007.93 1008.48 1009.16 1009.90 1010.66 1011.40 1012.07 1012.67 1013.20 1013.67 1014.10 1014.50 1014.89 1015.29 1015.67 1016.03 1016.35 1016.62 1016.80 1016.89 1016.89 1016.78 1016.57 1016.27
1013.25 1013.02 1012.73 1012.40 1012.04 1011.69 1011.33 1010.97 1010.60 1010.21 1009.79 1009.33 1008.84 1008.33 1007.84 1007.42 1007.10 1006.93 1006.93 1007.12 1007.50 1008.03 1008.69 1009.44 1010.22 1010.99 1011.73 1012.41 1013.03 1013.59 1014.11 1014.59 1015.03 1015.46 1015.85 1016.21 1016.52 1016.77 1016.94 1017.02 1017.00 1016.90 1016.70 1016.41
1013.36 1013.11 1012.81 1012.47 1012.10 1011.71 1011.32 1010.91 1010.49 1010.05 1009.59 1009.10 1008.59 1008.08 1007.60 1007.18 1006.85 1006.67 1006.64 1006.79 1007.12 1007.61 1008.24 1008.97 1009.76 1010.57 1011.37 1012.14 1012.85 1013.51 1014.12 1014.67 1015.16 1015.61 1016.01 1016.36 1016.64 1016.86 1017.00 1017.06 1017.04 1016.94 1016.76 1016.51
1013.40 1013.15 1012.86 1012.54 1012.19 1011.82 1011.43 1011.03 1010.60 1010.16 1009.69 1009.20 1008.68 1008.16 1007.66 1007.21 1006.85 1006.61 1006.52 1006.60 1006.85 1007.28 1007.86 1008.56 1009.36 1010.20 1011.07 1011.91 1012.73 1013.48 1014.16 1014.78 1015.31 1015.78 1016.17 1016.49 1016.74 1016.92 1017.03 1017.07 1017.05 1016.96 1016.81 1016.60
1013.42 1013.17 1012.90 1012.61 1012.30 1011.98 1011.64 1011.27 1010.88 1010.46 1010.01 1009.52 1009.00 1008.47 1007.94 1007.44 1007.02 1006.71 1006.54 1006.53 1006.71 1007.06 1007.59 1008.27 1009.07 1009.95 1010.87 1011.79 1012.68 1013.51 1014.27 1014.93 1015.50 1015.96 1016.34 1016.63 1016.84 1016.99 1017.07 1017.10 1017.07 1017.01 1016.90 1016.75
1013.46 1013.21 1012.96 1012.70 1012.44 1012.17 1011.89 1011.58 1011.24 1010.86 1010.43 1009.95 1009.43 1008.88 1008.32 1007.77 1007.29 1006.91 1006.65 1006.56 1006.66 1006.95 1007.44 1008.10 1008.91 1009.82 1010.78 1011.77 1012.73 1013.63 1014.43 1015.13 1015.71 1016.18 1016.53 1016.79 1016.97 1017.09 1017.15 1017.17 1017.16 1017.13 1017.08 1017.00
1013.56 1013.30 1013.05 1012.82 1012.60 1012.38 1012.14 1011.88 1011.59 1011.24 1010.84 1010.37 1009.85 1009.28 1008.68 1008.10 1007.56 1007.11 1006.79 1006.64 1006.68 1006.93 1007.39 1008.04 1008.86 1009.79 1010.80 1011.83 1012.84 1013.79 1014.63 1015.35 1015.93 1016.39 1016.73 1016.96 1017.12 1017.22 1017.28 1017.31 1017.34 1017.35 1017.36 1017.37
1013.74 1013.45 1013.20 1012.97 1012.76 1012.56 1012.36 1012.13 1011.86 1011.53 1011.14 1010.68 1010.15 1009.56 1008.95 1008.33 1007.76 1007.27 1006.91 1006.72 1006.73 1006.96 1007.41 1008.06 1008.88 1009.84 1010.88 1011.94 1012.98 1013.95 1014.80 1015.53 1016.11 1016.56 1016.89 1017.11 1017.27 1017.37 1017.45 1017.52 1017.59 1017.67 1017.76 1017.84
1014.00 1013.67 1013.39 1013.15 1012.93 1012.73 1012.52 1012.29 1012.02 1011.70 1011.31 1010.84 1010.30 1009.71 1009.08 1008.45 1007.87 1007.37 1007.00 1006.80 1006.80 1007.03 1007.47 1008.13 1008.96 1009.92 1010.97 1012.04 1013.08 1014.05 1014.91 1015.63 1016.20 1016.65 1016.97 1017.20 1017.37 1017.50 1017.62 1017.75 1017.89 1018.05 1018.22 1018.39
1014.31 1013.94 1013.62 1013.34 1013.09 1012.85 1012.62 1012.36 1012.07 1011.73 1011.32 1010.85 1010.31 1009.71 1009.09 1008.48 1007.91 1007.43 1007.08 1006.89 1006.91 1007.14 1007.59 1008.25 1009.07 1010.02 1011.05 1012.10 1013.12 1014.07 1014.90 1015.60 1016.17 1016.61 1016.94 1017.19 1017.39 1017.58 1017.76 1017.96 1018.19 1018.43 1018.69 1018.95
1014.62 1014.22 1013.85 1013.51 1013.21 1012.92 1012.64 1012.34 1012.02 1011.65 1011.22 1010.74 1010.21 1009.64 1009.05 1008.47 1007.94 1007.51 1007.20 1007.05 1007.10 1007.34 1007.79 1008.42 1009.22 1010.13 1011.11 1012.11 1013.08 1013.98 1014.77 1015.44 1015.99 1016.43 1016.79 1017.08 1017.33 1017.58 1017.84 1018.13 1018.45 1018.79 1019.14 1019.47
Thickness
5811 5807 5805 5812 5816 5815 5811 5807 5806 5812 5825 5822 5821 5823 5829 5834 5831 5827 5824 5821 5816 5812 5813 5808 5802 5796 5790 5784 5778 5773 5767 5763 5759 5756 5753 5749 5747 5747 5745 5744 5742 5740 5738 5737
5797 5799 5814 5816 5813 5808 5805 5801 5805 5812 5822 5818 5817 5821 5829 5831 5828 5827 5824 5821 5817 5813 5809 5804 5799 5795 5789 5783 5779 5774 5768 5765 5761 5758 5755 5752 5750 5748 5746 5744 5742 5740 5738 5737
5795 5805 5813 5805 5801 5798 5801 5801 5804 5804 5814 5820 5815 5815 5821 5828 5829 5828 5827 5826 5822 5815 5809 5803 5798 5794 5790 5784 5780 5776 5770 5765 5762 5758 5755 5751 5748 5747 5746 5744 5742 5741 5739 5738
5797 5806 5801 5799 5799 5799 5795 5810 5806 5803 5801 5807 5806 5799 5816 5822 5821 5822 5824 5824 5821 5817 5812 5805 5798 5794 5790 5787 5783 5778 5771 5766 5762 5759 5755 5751 5747 5746 5747 5746 5745 5742 5740 5739
5792 5799 5795 5793 5801 5803 5804 5810 5806 5803 5800 5797 5805 5796 5813 5820 5815 5819 5822 5821 5820 5818 5813 5806 5801 5796 5792 5789 5784 5778 5772 5766 5763 5759 5757 5752 5750 5749 5748 5746 5743 5741 5740 5739
5798 5803 5803 5804 5809 5808 5806 5801 5799 5800 5800 5782 5796 5791 5799 5817 5814 5818 5820 5819 5816 5815 5812 5807 5804 5798 5792 5788 5784 5778 5772 5767 5763 5759 5757 5753 5750 5748 5745 5743 5742 5740 5741 5740
5779 5790 5802 5807 5798 5799 5798 5787 5777 5776 5778 5783 5797 5790 5801 5817 5820 5820 5818 5816 5815 5813 5809 5804 5800 5795 5791 5786 5782 5777 5771 5766 5763 5760 5757 5754 5751 5748 5745 5743 5742 5740 5740 5740
5768 5775 5793 5800 5799 5794 5794 5794 5777 5769 5776 5788 5787 5788 5808 5821 5822 5822 5822 5818 5813 5810 5808 5804 5801 5796 5791 5786 5781 5776 5770 5765 5762 5760 5757 5754 5751 5749 5748 5745 5744 5742 5741 5741
5777 5777 5797 5802 5807 5802 5789 5791 5808 5791 5783 5778 5790 5796 5810 5817 5816 5817 5816 5813 5809 5807 5804 5802 5799 5795 5790 5784 5780 5775 5769 5764 5762 5759 5756 5753 5751 5749 5747 5745 5743 5742 5741 5741
5784 5772 5785 5793 5796 5796 5801 5801 5790 5782 5764 5763 5778 5784 5796 5805 5807 5809 5809 5808 5807 5805 5802 5800 5797 5792 5788 5783 5778 5774 5768 5763 5761 5758 5755 5753 5750 5749 5746 5745 5743 5741 5740 5739
5784 5770 5773 5780 5778 5782 5781 5784 5788 5787 5786 5770 5769 5785 5814 5811 5811 5809 5809 5809 5806 5804 5801 5797 5794 5790 5786 5781 5776 5771 5766 5762 5759 5757 5754 5752 5750 5748 5746 5743 5742 5740 5739 5738
5777 5772 5767 5777 5792 5799 5794 5791 5785 5773 5769 5775 5777 5790 5819 5818 5818 5815 5811 5808 5806 5803 5800 5796 5791 5786 5783 5778 5774 5769 5765 5761 5758 5756 5753 5751 5749 5747 5744 5742 5741 5739 5738 5737
5769 5761 5749 5756 5767 5777 5780 5788 5790 5788 5780 5775 5772 5788 5815 5815 5814 5813 5810 5805 5802 5799 5796 5792 5787 5783 5779 5776 5772 5768 5764 5761 5758 5755 5752 5749 5746 5744 5742 5740 5739 5738 5736 5734
5766 5761 5759 5760 5770 5780 5774 5780 5784 5781 5775 5774 5779 5791 5804 5808 5807 5807 5805 5802 5799 5795 5791 5788 5783 5780 5777 5773 5769 5765 5763 5760 5757 5754 5750 5746 5743 5741 5739 5738 5736 5735 5733 5731
5758 5753 5760 5771 5780 5781 5780 5780 5779 5777 5783 5781 5788 5792 5802 5808 5808 5806 5803 5799 5795 5791 5788 5785 5781 5777 5773 5769 5766 5763 5760 5757 5755 5751 5747 5744 5741 5739 5737 5735 5733 5731 5729 5728
5748 5748 5754 5756 5769 5772 5770 5777 5778 5778 5783 5786 5789 5793 5811 5812 5809 5803 5799 5796 5792 5789 5787 5784 5779 5775 5770 5766 5763 5760 5756 5753 5751 5747 5744 5741 5738 5735 5733 5731 5729 5727 5725 5723
5741 5738 5740 5749 5760 5758 5754 5772 5776 5779 5786 5787 5783 5795 5805 5801 5799 5798 5798 5796 5792 5789 5787 5783 5778 5773 5769 5765 5761 5756 5753 5750 5747 5743 5740 5737 5735 5731 5729 5727 5724 5722 5720 5718
5726 5729 5738 5746 5741 5728 5765 5787 5786 5783 5786 5791 5792 5797 5799 5797 5798 5799 5800 5797 5793 5790 5786 5782 5777 5772 5768 5764 5759 5755 5751 5747 5743 5740 5736 5733 5730 5727 5724 5721 5719 5716 5714 5712
5722 5722 5732 5737 5734 5743 5759 5771 5776 5773 5774 5788 5787 5790 5793 5795 5792 5793 5797 5797 5794 5791 5786 5781 5777 5772 5766 5761 5756 5751 5747 5743 5740 5736 5732 5729 5726 5722 5719 5715 5712 5709 5707 5704
5712 5715 5722 5727 5725 5729 5753 5766 5773 5769 5760 5780 5782 5782 5784 5784 5781 5786 5790 5791 5788 5786 5782 5777 5773 5767 5760 5756 5753 5747 5743 5738 5734 5731 5728 5725 5721 5717 5713 5709 5706 5703 5700 5697
5700 5703 5709 5717 5721 5740 5749 5759 5761 5745 5753 5766 5772 5774 5777 5777 5779 5783 5784 5781 5780 5777 5774 5771 5766 5760 5755 5751 5747 5742 5738 5733 5730 5726 5723 5719 5715 5711 5707 5703 5700 5697 5694 5691
5700 5704 5702 5711 5711 5724 5738 5747 5745 5745 5754 5759 5763 5767 5769 5770 5772 5774 5774 5771 5769 5767 5764 5762 5758 5752 5748 5745 5740 5735 5730 5727 5724 5719 5715 5711 5708 5705 5702 5697 5694 5691 5688 5684
5692 5699 5708 5710 5714 5718 5727 5731 5736 5741 5743 5749 5754 5759 5760 5760 5760 5762 5761 5760 5759 5757 5755 5753 5749 5743 5740 5737 5734 5728 5722 5719 5715 5711 5707 5704 5701 5697 5694 5690 5687 5684 5681 5679
5679 5685 5690 5695 5706 5710 5716 5722 5726 5731 5734 5741 5747 5750 5752 5751 5752 5752 5750 5749 5747 5746 5744 5742 5739 5734 5730 5727 5724 5720 5715 5711 5707 5703 5699 5696 5692 5689 5685 5682 5679 5677 5673 5671
5666 5673 5679 5682 5691 5698 5704 5707 5712 5718 5725 5731 5736 5739 5741 5742 5741 5741 5739 5737 5735 5734 5733 5731 5728 5723 5719 5717 5714 5710 5706 5703 5699 5695 5691 5688 5685 5681 5676 5672 5668 5666 5662 5660
5657 5660 5664 5670 5676 5681 5686 5694 5701 5705 5711 5717 5721 5724 5728 5730 5729 5729 5727 5725 5724 5722 5721 5718 5716 5713 5709 5706 5702 5699 5697 5694 5690 5687 5682 5679 5676 5672 5668 5663 5656 5650 5649 5645